Simultaneous Nadir Overpasses (SNOs) Predictions

Prediction of SNOs between AQUA and METOP-A Satellite Orbit:

Table of predicted SNOs for the next 14.0 days since TLE Epoch: 10/3/2014
Index Date (AQUA) Time (AQUA) Lat,Lon (AQUA) SZA (AQUA ) Date (METOP-A) Time (METOP-A) Lat,Lon (METOP-A) SZA (METOP-A ) Distance(km) Time Diff (sec)
1 10/04/2014 10:09:39 -73.75,-158.01 101.93 10/04/2014 10:08:50 -73.74,-158.08 101.93 2.15 49
2 10/04/2014 10:59:08 73.82, 9.47 78.16 10/04/2014 10:59:29 73.81, 9.41 78.15 2.22 21
3 10/07/2014 05:43:50 -73.78, -91.61 100.83 10/07/2014 05:43:10 -73.77, -91.59 100.83 0.84 40
4 10/07/2014 06:33:19 73.85, 75.86 79.27 10/07/2014 06:33:49 73.83, 75.89 79.25 2.13 30
5 10/10/2014 01:18:01 -73.80, -25.22 99.73 10/10/2014 01:17:31 -73.79, -25.13 99.74 3.13 30
6 10/10/2014 02:07:29 73.83, 142.36 80.32 10/10/2014 02:08:10 73.85, 142.34 80.34 1.96 41
7 10/12/2014 20:02:31 73.08,-124.88 80.58 10/12/2014 20:01:26 73.03,-127.77 80.57 93.80 65
8 10/12/2014 20:52:10 -73.79, 41.28 98.69 10/12/2014 20:51:52 -73.80, 41.31 98.67 2.00 18
9 10/12/2014 21:41:39 73.87,-151.27 81.42 10/12/2014 21:42:31 73.86,-151.22 81.40 1.98 52
10 10/15/2014 15:36:48 73.59, -59.48 82.15 10/15/2014 15:35:36 73.53, -60.24 82.10 24.97 72
11 10/15/2014 16:26:18 -73.82, 107.67 97.60 10/15/2014 16:26:12 -73.80, 107.74 97.62 2.90 6
12 10/15/2014 17:15:46 73.86, -84.78 82.45 10/15/2014 17:16:51 73.86, -84.81 82.45 1.17 65




NCC Satellite Simultaneous Nadir Overpasses (SNOs) Prediction Service
